This demonstration page uses our WeatherBlox Daily Observations layout. Learn more.

Left ArrowRight Arrow

36.17497, -115.13722

Hourly Observations for March 26, 2019

Temp ( °F °C ) Dew Point ( °F °C ) Humidity (%) Winds ( mph kmh ) Pressure ( in mb ) Visibility ( mi km ) Precip ( " mm )
12:53 am 00:53 Clear 56 13.3 31 -0.6 39 39 NW 5 7 30.05 1018 10 16 0.00 0.00
1:53 am 01:53 Clear 56 13.3 32 0 40 40 NNW 3 6 30.04 1017 10 16 0.00 0.00
2:53 am 02:53 Clear 55 12.8 30 -1.1 38 38 NW 5 7 30.02 1017 10 16 0.00 0.00
3:53 am 03:53 Clear 53 11.7 31 -0.6 43 43 NNW 3 6 30.01 1016 10 16 0.00 0.00
4:53 am 04:53 Clear 53 11.7 31 -0.6 43 43 Calm 30.01 1016 10 16 0.00 0.00
5:53 am 05:53 Clear 53 11.7 31 -0.6 43 43 NW 5 7 30.01 1016 10 16 0.00 0.00
6:53 am 06:53 Sunny 52 11.1 31 -0.6 45 45 NW 5 7 30.02 1017 10 16 0.00 0.00
7:53 am 07:53 Sunny 54 12.2 32 0 43 43 Calm 30.03 1017 10 16 0.00 0.00
8:53 am 08:53 Sunny 60 15.6 29 -1.7 31 31 Calm 30.04 1017 10 16 0.00 0.00
9:53 am 09:53 Sunny 65 18.3 26 -3.3 23 23 E 7 11 30.04 1017 10 16 0.00 0.00
10:53 am 10:53 Sunny 67 19.4 26 -3.3 21 21 SSE 5 7 30.04 1017 10 16 0.00 0.00
11:53 am 11:53 Sunny 71 21.7 25 -3.9 18 18 SE 6 9 30.02 1017 10 16 0.00 0.00
12:53 pm 12:53 Sunny 73 22.8 24 -4.4 16 16 SSE 8 13 29.99 1016 10 16 0.00 0.00
1:53 pm 13:53 Sunny 76 24.4 23 -5 14 14 SE 10 17 29.96 1015 10 16 0.00 0.00
2:53 pm 14:53 Sunny 78 25.6 22 -5.6 12 12 SSE 13 20 29.93 1013 10 16 0.00 0.00
3:53 pm 15:53 Sunny 79 26.1 22 -5.6 12 12 SE 10 17 29.92 1013 10 16 0.00 0.00
4:53 pm 16:53 Sunny 79 26.1 17 -8.3 10 10 SW 12 19 29.89 1012 10 16 0.00 0.00
5:53 pm 17:53 Sunny 79 26.1 13 -10.6 8 8 SW 10 17 29.88 1012 10 16 0.00 0.00
6:53 pm 18:53 Sunny 74 23.3 19 -7.2 12 12 E 6 9 29.90 1012 10 16 0.00 0.00
7:53 pm 19:53 Clear 73 22.8 19 -7.2 13 13 Calm 29.90 1013 10 16 0.00 0.00
8:53 pm 20:53 Clear 70 21.1 13 -10.6 11 11 SSW 5 7 29.91 1013 10 16 0.00 0.00
9:53 pm 21:53 Clear 67 19.4 15 -9.4 13 13 SSE 8 13 29.93 1013 10 16 0.00 0.00
10:53 pm 22:53 Clear 65 18.3 17 -8.3 16 16 WSW 3 6 29.93 1014 10 16 0.00 0.00
11:53 pm 23:53 Clear 64 17.8 16 -8.9 15 15 SE 5 7 29.93 1014 10 16 0.00 0.00

Powered by AerisWeather